Newark, NJ

11:16 AM EST on February 27, 2017 (GMT -0500)
Newark International

Weather History for KEWR - June, 2012

Change the Weather History Date:

Thursday, June 21, 2012

  Actual Average Record
Temperature  
Mean Temperature 89 °F 74 °F  
Max Temperature 99 °F 83 °F 100 °F (1953)
Min Temperature 79 °F 65 °F 46 °F (1940)
Degree Days  
Heating Degree Days 0 0  
Month to date heating degree days 14 15  
Since 1 June heating degree days 14 15  
Since 1 July heating degree days 3707 4870  
Cooling Degree Days 24 9  
Month to date cooling degree days 125 144  
Year to date cooling degree days 258 220  
Since 1 June cooling degree days 125 144  
Growing Degree Days 39 (Base 50)    
Moisture  
Dew Point 66 °F    
Average Humidity 51    
Maximum Humidity 69    
Minimum Humidity 33    
Precipitation  
Precipitation 0.00 in 0.13 in 1.89 in (2003)
Month to date precipitation 3.38 2.90  
Year to date precipitation 16.42 21.79  
Snow  
Snow 0.00 in 0.00 in 0.00 in (2002)
Month to date snowfall 0.0 0.0  
Since 1 July snowfall 8.8 28.5  
Snow Depth 0.00 in    
Sea Level Pressure  
Sea Level Pressure 29.86 in    
Wind  
Wind Speed 9 mph (WNW)    
Max Wind Speed 18 mph    
Max Gust Speed 23 mph    
Visibility 10 miles    
Events      
T = Trace of Precipitation, MM = Missing Value Source: NWS Daily Summary

Daily Weather History Graph

Daily Weather History Graph

Search for Another Location

Airport or City:

Trip Planner

Search our weather history database for the weather conditions in past years. The results will help you decide how hot, cold, wet, or windy it might be!

Date:

Astronomy

Jun. 21, 2012 Rise Set
Actual Time 5:25 AM EDT 8:31 PM EDT
Civil Twilight 4:52 AM EDT 9:04 PM EDT
Nautical Twilight 4:09 AM EDT 9:47 PM EDT
Astronomical Twilight 3:19 AM EDT 10:37 PM EDT
Moon 7:22 AM EDT (6/21) 9:52 PM EDT (6/21)
Length of Visible Light 16h 12m
Length of Day
15h 05m
Waxing Crescent, 4% of the Moon is Illuminated
Jun 21
Waxing Crescent
Jun 26
First Quarter
Jul 3
Full
Jul 10
Last Quarter
Jul 19
New

Hourly Weather History & Observations

Time (EDT) Temp. Heat Index Dew Point Humidity Pressure Visibility Wind Dir Wind Speed Gust Speed Precip Events Conditions
12:51 AM 84.9 °F 88.8 °F 69.1 °F 59% 29.93 in 10.0 mi West 6.9 mph - N/A   Clear
1:51 AM 84.0 °F 87.8 °F 69.1 °F 61% 29.92 in 10.0 mi WSW 6.9 mph - N/A   Clear
2:51 AM 82.4 °F 86.3 °F 69.8 °F 66% 29.92 in 10.0 mi WNW 5.8 mph - N/A   Clear
3:51 AM 81.0 °F 84.1 °F 69.1 °F 67% 29.91 in 10.0 mi Calm Calm - N/A   Clear
4:51 AM 82.4 °F 85.4 °F 68.0 °F 62% 29.91 in 10.0 mi WNW 6.9 mph - N/A   Clear
5:51 AM 81.0 °F 83.8 °F 68.0 °F 65% 29.93 in 10.0 mi North 6.9 mph - N/A   Partly Cloudy
6:51 AM 84.2 °F 87.3 °F 68.0 °F 58% 29.94 in 10.0 mi North 6.9 mph - N/A   Clear
7:51 AM 87.8 °F 90.4 °F 66.2 °F 49% 29.94 in 10.0 mi North 5.8 mph - N/A   Clear
8:51 AM 89.6 °F 92.2 °F 66.2 °F 46% 29.94 in 10.0 mi Variable 6.9 mph - N/A   Clear
9:51 AM 91.9 °F 94.5 °F 66.0 °F 42% 29.92 in 10.0 mi NNW 10.4 mph 18.4 mph N/A   Clear
10:51 AM 93.0 °F 94.6 °F 64.0 °F 38% 29.90 in 10.0 mi NNW 11.5 mph - N/A   Partly Cloudy
11:51 AM 93.9 °F 96.1 °F 64.9 °F 38% 29.89 in 9.0 mi NNW 10.4 mph - N/A   Scattered Clouds
12:51 PM 96.1 °F 98.8 °F 64.9 °F 36% 29.87 in 10.0 mi WNW 12.7 mph 18.4 mph N/A   Scattered Clouds
1:51 PM 97.0 °F 99.9 °F 64.9 °F 35% 29.85 in 10.0 mi WNW 9.2 mph 19.6 mph N/A   Scattered Clouds
2:51 PM 98.1 °F 101.2 °F 64.9 °F 34% 29.83 in 10.0 mi West 13.8 mph - N/A   Scattered Clouds
3:51 PM 98.1 °F 101.2 °F 64.9 °F 34% 29.81 in 10.0 mi West 18.4 mph 21.9 mph N/A   Scattered Clouds
4:51 PM 97.0 °F 100.4 °F 66.0 °F 36% 29.79 in 10.0 mi West 12.7 mph - N/A   Scattered Clouds
5:51 PM 97.0 °F 99.3 °F 64.0 °F 34% 29.77 in 10.0 mi West 11.5 mph 20.7 mph N/A   Scattered Clouds
6:51 PM 95.0 °F 96.0 °F 63.0 °F 34% 29.78 in 10.0 mi West 16.1 mph - N/A   Scattered Clouds
7:51 PM 93.0 °F 94.6 °F 64.0 °F 38% 29.78 in 10.0 mi West 11.5 mph - N/A   Scattered Clouds
8:51 PM 91.0 °F 93.0 °F 64.9 °F 42% 29.78 in 10.0 mi WSW 9.2 mph - N/A   Partly Cloudy
9:51 PM 90.0 °F 92.8 °F 66.9 °F 46% 29.79 in 10.0 mi West 10.4 mph - N/A   Partly Cloudy
10:51 PM 88.0 °F 90.7 °F 66.9 °F 49% 29.79 in 10.0 mi West 9.2 mph - N/A   Partly Cloudy
11:51 PM 87.1 °F 90.6 °F 68.0 °F 53% 29.79 in 10.0 mi West 6.9 mph - N/A   Partly Cloudy